TimeCDT,TemperatureF,Dew PointF,Humidity,Sea Level PressureIn,VisibilityMPH,Wind Direction,Wind SpeedMPH,Gust SpeedMPH,PrecipitationIn,Events,Conditions,WindDirDegrees,DateUTC
12:08 AM,77.0,73.4,89,30.02,10.0,SSE,8.1,-,N/A,,Mostly Cloudy,150,2013-10-13 05:08:00
12:23 AM,77.0,73.4,89,30.03,10.0,SSE,9.2,-,N/A,,Mostly Cloudy,150,2013-10-13 05:23:00
12:28 AM,77.0,73.4,89,30.03,10.0,SSE,8.1,-,N/A,,Mostly Cloudy,150,2013-10-13 05:28:00
12:33 AM,77.0,73.4,89,30.03,10.0,SSE,9.2,-,N/A,,Scattered Clouds,160,2013-10-13 05:33:00
12:58 AM,77.2,73.4,88,30.01,10.0,SSE,9.2,-,N/A,,Partly Cloudy,150,2013-10-13 05:58:00
1:58 AM,77.2,73.4,88,30.01,10.0,SSE,9.2,-,N/A,,Partly Cloudy,160,2013-10-13 06:58:00
2:58 AM,76.6,72.9,88,30.01,10.0,South,8.1,-,N/A,,Clear,170,2013-10-13 07:58:00
3:58 AM,76.6,72.9,88,30.01,10.0,SSE,4.6,-,N/A,,Scattered Clouds,160,2013-10-13 08:58:00
4:58 AM,76.5,72.9,89,30.01,10.0,South,5.8,-,N/A,,Partly Cloudy,180,2013-10-13 09:58:00
5:58 AM,76.6,72.7,87,30.04,10.0,South,5.8,-,N/A,,Clear,190,2013-10-13 10:58:00
6:28 AM,77.0,73.4,89,30.07,10.0,SSE,6.9,-,N/A,Rain,Light Rain,150,2013-10-13 11:28:00
6:38 AM,77.0,73.4,89,30.07,6.0,South,5.8,-,N/A,Rain,Light Rain,170,2013-10-13 11:38:00
6:43 AM,77.0,73.4,89,30.07,5.0,South,4.6,-,N/A,Rain,Light Rain,190,2013-10-13 11:43:00
6:48 AM,77.0,73.4,89,30.08,5.0,South,4.6,-,N/A,Rain,Rain,190,2013-10-13 11:48:00
6:53 AM,77.0,73.4,89,30.09,3.0,South,2.3,-,N/A,Rain,Rain,170,2013-10-13 11:53:00
6:58 AM,76.1,73.4,91,30.07,3.0,SE,3.5,-,0.00,Rain,Light Rain,130,2013-10-13 11:58:00
7:03 AM,75.2,73.4,94,30.09,3.0,SE,5.8,-,N/A,Rain,Rain,140,2013-10-13 12:03:00
7:08 AM,75.2,73.4,94,30.09,2.5,ESE,2.3,-,N/A,Rain,Rain,120,2013-10-13 12:08:00
7:13 AM,75.2,71.6,89,30.09,4.0,Variable,4.6,-,N/A,Rain,Light Rain,0,2013-10-13 12:13:00
7:18 AM,75.2,71.6,89,30.10,10.0,Variable,5.8,-,N/A,,Light Drizzle,0,2013-10-13 12:18:00
7:21 AM,75.2,71.6,89,30.11,10.0,East,8.1,-,N/A,,Scattered Clouds,80,2013-10-13 12:21:00
7:28 AM,73.4,69.8,88,30.12,10.0,ENE,12.7,19.6,N/A,,Light Drizzle,70,2013-10-13 12:28:00
7:33 AM,69.8,66.2,88,30.12,8.0,ENE,17.3,27.6,N/A,Rain,Light Rain,70,2013-10-13 12:33:00
7:38 AM,68.0,64.4,88,30.13,6.0,ENE,16.1,27.6,N/A,Rain,Rain,70,2013-10-13 12:38:00
7:43 AM,68.0,64.4,88,30.13,2.5,NE,20.7,27.6,N/A,Rain,Heavy Rain,50,2013-10-13 12:43:00
7:48 AM,66.2,64.4,94,30.14,1.0,NE,21.9,29.9,N/A,Rain,Heavy Rain,50,2013-10-13 12:48:00
7:54 AM,66.2,62.6,88,30.14,1.2,ENE,20.7,29.9,N/A,Rain,Light Rain,60,2013-10-13 12:54:00
7:58 AM,66.6,63.3,89,30.12,1.8,NE,21.9,29.9,0.10,Rain,Light Rain,50,2013-10-13 12:58:00
8:03 AM,66.2,62.6,88,30.14,6.0,NE,16.1,26.5,N/A,Rain,Light Rain,50,2013-10-13 13:03:00
8:08 AM,66.2,62.6,88,30.15,3.0,ENE,15.0,25.3,N/A,Rain,Heavy Rain,70,2013-10-13 13:08:00
8:13 AM,66.2,62.6,88,30.16,2.0,ENE,15.0,25.3,N/A,Rain-Thunderstorm,Rain,70,2013-10-13 13:13:00
8:18 AM,66.2,62.6,88,30.16,2.5,ENE,11.5,21.9,N/A,Rain-Thunderstorm,Rain,60,2013-10-13 13:18:00
8:23 AM,66.2,62.6,88,30.16,4.0,NE,15.0,21.9,N/A,Rain-Thunderstorm,Light Rain,50,2013-10-13 13:23:00
8:38 AM,66.2,64.4,94,30.17,3.0,ENE,9.2,-,N/A,Rain,Rain,60,2013-10-13 13:38:00
8:48 AM,66.2,64.4,94,30.17,8.0,ENE,9.2,-,N/A,Rain,Light Rain,60,2013-10-13 13:48:00
8:58 AM,66.4,63.9,92,30.17,10.0,NE,10.4,18.4,0.08,Rain,Light Rain,50,2013-10-13 13:58:00
9:12 AM,66.2,64.4,94,30.18,10.0,NNE,9.2,-,N/A,,Clear,30,2013-10-13 14:12:00
9:58 AM,67.8,65.1,91,30.14,10.0,ENE,10.4,-,0.00,,Clear,60,2013-10-13 14:58:00
10:58 AM,70.5,67.3,89,30.12,10.0,East,10.4,-,N/A,,Clear,80,2013-10-13 15:58:00
11:03 AM,71.6,68.0,88,30.14,10.0,East,12.7,-,N/A,,Partly Cloudy,80,2013-10-13 16:03:00
11:13 AM,71.6,68.0,88,30.15,10.0,East,10.4,-,N/A,,Mostly Cloudy,90,2013-10-13 16:13:00
11:35 AM,71.6,68.0,88,30.15,10.0,East,12.7,-,N/A,,Mostly Cloudy,80,2013-10-13 16:35:00
11:58 AM,70.9,67.6,89,30.13,10.0,East,8.1,-,N/A,,Scattered Clouds,80,2013-10-13 16:58:00
12:12 PM,71.6,68.0,88,30.15,10.0,ENE,6.9,-,N/A,,Light Drizzle,70,2013-10-13 17:12:00
12:16 PM,71.6,68.0,88,30.16,10.0,East,6.9,-,N/A,,Partly Cloudy,80,2013-10-13 17:16:00
12:18 PM,71.6,68.0,88,30.16,10.0,ENE,6.9,-,N/A,,Light Drizzle,70,2013-10-13 17:18:00
12:58 PM,71.1,68.0,90,30.11,10.0,NE,6.9,-,0.01,Rain,Light Rain,50,2013-10-13 17:58:00
1:58 PM,71.4,68.7,91,30.07,10.0,NE,5.8,-,0.02,Rain,Light Rain,40,2013-10-13 18:58:00
2:24 PM,71.6,68.0,88,30.07,10.0,ENE,8.1,-,N/A,,Clear,60,2013-10-13 19:24:00
2:54 PM,71.6,68.0,88,30.07,10.0,ENE,5.8,-,N/A,,Light Drizzle,60,2013-10-13 19:54:00
2:58 PM,71.8,68.7,90,30.05,10.0,East,4.6,-,0.00,Rain,Light Rain,80,2013-10-13 19:58:00
3:58 PM,71.6,69.3,92,30.03,10.0,NE,4.6,-,0.03,Rain,Light Rain,50,2013-10-13 20:58:00
4:58 PM,71.8,69.6,93,30.04,8.0,ENE,3.5,-,0.03,Rain,Light Rain,60,2013-10-13 21:58:00
5:58 PM,71.8,69.6,93,30.05,8.0,NE,3.5,-,0.03,Rain,Light Rain,40,2013-10-13 22:58:00
6:58 PM,72.0,70.2,94,30.06,8.0,East,5.8,-,0.02,Rain,Light Rain,90,2013-10-13 23:58:00
7:13 PM,71.6,69.8,94,30.08,7.0,East,6.9,-,N/A,Rain,Light Rain,90,2013-10-14 00:13:00
7:24 PM,71.6,69.8,94,30.08,8.0,East,6.9,-,N/A,Rain,Light Rain,90,2013-10-14 00:24:00
7:58 PM,72.3,70.5,94,30.07,9.0,ESE,10.4,-,0.01,Rain,Light Rain,110,2013-10-14 00:58:00
8:08 PM,71.6,69.8,94,30.08,9.0,East,8.1,-,N/A,Rain,Light Rain,100,2013-10-14 01:08:00
8:13 PM,71.6,69.8,94,30.09,7.0,East,9.2,-,N/A,Rain,Light Rain,100,2013-10-14 01:13:00
8:28 PM,73.4,71.6,94,30.09,10.0,East,8.1,-,N/A,Rain,Light Rain,100,2013-10-14 01:28:00
8:58 PM,72.3,70.5,94,30.08,10.0,ESE,12.7,-,0.03,,Light Drizzle,110,2013-10-14 01:58:00
9:13 PM,71.6,69.8,94,30.09,10.0,ESE,10.4,-,N/A,,Light Drizzle,110,2013-10-14 02:13:00
9:23 PM,71.6,69.8,94,30.09,10.0,ESE,10.4,-,N/A,,Light Drizzle,120,2013-10-14 02:23:00
9:24 PM,71.6,69.8,94,30.09,10.0,ESE,9.2,-,N/A,,Overcast,120,2013-10-14 02:24:00
9:29 PM,71.6,69.8,94,30.09,10.0,ESE,10.4,-,N/A,,Overcast,110,2013-10-14 02:29:00
9:47 PM,71.6,69.8,94,30.09,10.0,East,12.7,18.4,N/A,,Light Drizzle,100,2013-10-14 02:47:00
9:58 PM,72.0,69.8,93,30.09,10.0,ESE,10.4,-,0.00,,Light Drizzle,110,2013-10-14 02:58:00
10:04 PM,71.6,69.8,94,30.10,10.0,ESE,10.4,-,N/A,,Overcast,110,2013-10-14 03:04:00
10:08 PM,71.6,69.8,94,30.10,10.0,ESE,10.4,-,N/A,,Light Drizzle,120,2013-10-14 03:08:00
10:37 PM,71.6,69.8,94,30.10,10.0,ESE,9.2,-,N/A,,Overcast,120,2013-10-14 03:37:00
10:58 PM,72.3,70.2,93,30.09,10.0,ESE,10.4,-,0.00,,Overcast,120,2013-10-14 03:58:00
11:53 PM,71.6,69.8,94,30.10,10.0,ESE,6.9,-,N/A,,Mostly Cloudy,120,2013-10-14 04:53:00
11:58 PM,72.5,70.0,92,30.09,10.0,ESE,6.9,-,N/A,,Mostly Cloudy,120,2013-10-14 04:58:00